TimeEDT,TemperatureF,Dew PointF,Humidity,Sea Level PressureIn,VisibilityMPH,Wind Direction,Wind SpeedMPH,Gust SpeedMPH,PrecipitationIn,Events,Conditions,WindDirDegrees,DateUTC
12:36 AM,59.0,53.6,82,30.06,10.0,ENE,4.6,-,N/A,,Overcast,60,2012-10-10 04:36:00
12:52 AM,57.9,53.1,84,30.06,9.0,ENE,3.5,-,N/A,,Overcast,60,2012-10-10 04:52:00
1:52 AM,57.9,53.1,84,30.05,6.0,Calm,Calm,-,0.00,,Light Drizzle,0,2012-10-10 05:52:00
2:20 AM,57.2,53.6,88,30.05,4.0,ENE,3.5,-,0.00,,Overcast,60,2012-10-10 06:20:00
2:40 AM,57.2,53.6,88,30.04,4.0,Calm,Calm,-,0.00,,Overcast,0,2012-10-10 06:40:00
2:47 AM,57.2,53.6,88,30.04,4.0,Calm,Calm,-,0.00,,Overcast,0,2012-10-10 06:47:00
2:52 AM,57.9,54.0,87,30.04,4.0,Calm,Calm,-,0.00,,Overcast,0,2012-10-10 06:52:00
3:52 AM,57.9,54.0,87,30.02,6.0,Calm,Calm,-,N/A,,Overcast,0,2012-10-10 07:52:00
3:59 AM,57.2,53.6,88,30.02,6.0,Calm,Calm,-,N/A,,Overcast,0,2012-10-10 07:59:00
4:52 AM,57.9,54.0,87,30.01,6.0,Calm,Calm,-,N/A,,Overcast,0,2012-10-10 08:52:00
5:12 AM,57.2,53.6,88,30.01,7.0,WNW,4.6,-,N/A,,Overcast,300,2012-10-10 09:12:00
5:52 AM,57.9,53.1,84,30.01,6.0,Calm,Calm,-,N/A,,Haze,0,2012-10-10 09:52:00
6:07 AM,57.2,53.6,88,30.01,6.0,SW,3.5,-,N/A,,Overcast,220,2012-10-10 10:07:00
6:43 AM,57.2,53.6,88,30.01,6.0,WSW,5.8,-,N/A,,Haze,250,2012-10-10 10:43:00
6:52 AM,57.9,53.1,84,30.01,6.0,West,6.9,-,N/A,,Haze,260,2012-10-10 10:52:00
7:12 AM,57.2,53.6,88,30.01,6.0,WSW,3.5,-,N/A,,Overcast,240,2012-10-10 11:12:00
7:46 AM,57.2,51.8,82,30.01,7.0,SSW,4.6,-,N/A,,Scattered Clouds,210,2012-10-10 11:46:00
7:52 AM,57.0,52.0,83,30.01,7.0,SW,4.6,-,N/A,,Scattered Clouds,230,2012-10-10 11:52:00
8:52 AM,60.1,53.1,78,30.01,9.0,SW,6.9,-,N/A,,Scattered Clouds,220,2012-10-10 12:52:00
9:52 AM,63.0,52.0,67,30.00,10.0,SW,6.9,-,N/A,,Scattered Clouds,230,2012-10-10 13:52:00
10:30 AM,64.4,50.0,59,29.99,10.0,SW,11.5,-,N/A,,Scattered Clouds,230,2012-10-10 14:30:00
10:52 AM,66.0,48.9,54,29.99,10.0,SW,12.7,18.4,N/A,,Mostly Cloudy,230,2012-10-10 14:52:00
11:52 AM,64.0,46.9,54,29.99,10.0,WSW,8.1,-,N/A,,Mostly Cloudy,250,2012-10-10 15:52:00
12:52 PM,64.9,48.0,54,29.97,10.0,NW,9.2,-,N/A,,Scattered Clouds,310,2012-10-10 16:52:00
1:52 PM,66.0,46.9,50,29.93,10.0,Variable,4.6,-,N/A,,Scattered Clouds,0,2012-10-10 17:52:00
2:52 PM,69.1,45.0,42,29.91,10.0,WSW,6.9,-,N/A,,Scattered Clouds,240,2012-10-10 18:52:00
3:52 PM,69.1,44.1,40,29.90,10.0,WNW,6.9,-,N/A,,Scattered Clouds,290,2012-10-10 19:52:00
4:52 PM,70.0,45.0,41,29.89,10.0,SW,9.2,-,N/A,,Partly Cloudy,220,2012-10-10 20:52:00
5:52 PM,68.0,45.0,43,29.90,10.0,WSW,9.2,-,N/A,,Mostly Cloudy,240,2012-10-10 21:52:00
6:52 PM,66.9,46.9,49,29.92,10.0,SW,6.9,-,N/A,,Overcast,220,2012-10-10 22:52:00
7:52 PM,66.0,45.0,47,29.97,10.0,NW,24.2,32.2,N/A,,Overcast,320,2012-10-10 23:52:00
8:52 PM,62.1,43.0,50,30.01,10.0,NW,20.7,28.8,N/A,,Scattered Clouds,310,2012-10-11 00:52:00
9:52 PM,60.1,42.1,51,30.05,10.0,NW,15.0,25.3,N/A,,Partly Cloudy,320,2012-10-11 01:52:00
10:52 PM,57.9,41.0,53,30.08,10.0,NW,12.7,-,N/A,,Partly Cloudy,320,2012-10-11 02:52:00
11:52 PM,55.9,41.0,57,30.11,10.0,NNW,8.1,-,N/A,,Clear,330,2012-10-11 03:52:00